• In Germany
  • List of Countries
  • For 7 days
  • Water Temperature
  • Satellite Maps
  • Weather Map
  • Weather Widgets
  • user-avatar
    Login

    Hourly Weather Ordino

    Today, 21 January, Sunday

    Time Temperature Precipitation Wind Pressure Humidity
    00:00 +2°C° 0 mm 5 mps 633 mmHg 91%
    01:00 +3°C° 0.3 mm 4 mps 633 mmHg 90%
    02:00 +3°C° 0.3 mm 4 mps 633 mmHg 90%
    03:00 +3°C° 0.3 mm 4 mps 633 mmHg 90%
    04:00 +3°C° 0.4 mm 3 mps 633 mmHg 90%
    05:00 +3°C° 0.4 mm 3 mps 633 mmHg 90%
    06:00 +3°C° 0 mm 4 mps 634 mmHg 90%
    07:00 +3°C° 0.4 mm 4 mps 634 mmHg 89%
    08:00 +3°C° 0.4 mm 3 mps 635 mmHg 89%
    09:00 +4°C° 0.4 mm 3 mps 635 mmHg 88%
    10:00 +4°C° 0.4 mm 3 mps 635 mmHg 87%
    11:00 +4°C° 0.4 mm 3 mps 635 mmHg 86%
    12:00 +5°C° 0.4 mm 3 mps 636 mmHg 86%
    13:00 +5°C° 0.3 mm 3 mps 636 mmHg 85%
    14:00 +5°C° 0.3 mm 3 mps 636 mmHg 85%
    15:00 +5°C° 0.3 mm 3 mps 636 mmHg 85%
    16:00 +5°C° 0.2 mm 3 mps 636 mmHg 86%
    17:00 +4°C° 0.2 mm 3 mps 636 mmHg 87%
    18:00 +4°C° 0.2 mm 3 mps 636 mmHg 89%
    19:00 +3°C° 0.1 mm 3 mps 636 mmHg 88%
    20:00 +3°C° 0.1 mm 3 mps 637 mmHg 87%
    21:00 +3°C° 0.1 mm 3 mps 637 mmHg 86%
    22:00 +2°C° 0 mm 3 mps 637 mmHg 85%
    23:00 +2°C° 0 mm 3 mps 637 mmHg 84%

    Tomorrow, 22 January, Monday

    Time Temperature Precipitation Wind Pressure Humidity
    00:00 +2°C° 0 mm 3 mps 637 mmHg 82%
    01:00 +2°C° 0 mm 3 mps 637 mmHg 81%
    02:00 +1°C° 0 mm 3 mps 636 mmHg 80%
    03:00 +1°C° 0 mm 3 mps 636 mmHg 79%
    04:00 +1°C° 0 mm 3 mps 636 mmHg 79%
    05:00 +1°C° 0 mm 3 mps 636 mmHg 79%
    06:00 +1°C° 0 mm 3 mps 636 mmHg 78%
    07:00 +2°C° 0 mm 3 mps 636 mmHg 76%
    08:00 +3°C° 0 mm 3 mps 637 mmHg 74%
    09:00 +3°C° 0 mm 3 mps 637 mmHg 72%
    10:00 +5°C° 0 mm 3 mps 638 mmHg 69%
    11:00 +7°C° 0 mm 3 mps 638 mmHg 66%
    12:00 +8°C° 0 mm 3 mps 639 mmHg 64%
    13:00 +8°C° 0 mm 3 mps 638 mmHg 65%
    14:00 +8°C° 0 mm 3 mps 638 mmHg 66%
    15:00 +8°C° 0 mm 3 mps 638 mmHg 67%
    16:00 +5°C° 0 mm 3 mps 637 mmHg 70%
    17:00 +4°C° 0 mm 3 mps 637 mmHg 73%
    18:00 +2°C° 0 mm 3 mps 636 mmHg 75%
    19:00 +2°C° 0 mm 3 mps 637 mmHg 76%
    20:00 +2°C° 0 mm 3 mps 637 mmHg 76%
    21:00 +2°C° 0 mm 3 mps 637 mmHg 77%
    22:00 +3°C° 0.2 mm 3 mps 637 mmHg 80%
    23:00 +3°C° 0.2 mm 3 mps 638 mmHg 82%

    Day after tomorrow, 23 January, Tuesday

    Time Temperature Precipitation Wind Pressure Humidity
    00:00 +3°C° 0.2 mm 3 mps 638 mmHg 85%
    01:00 +3°C° 0 mm 3 mps 638 mmHg 86%
    02:00 +3°C° 0 mm 2 mps 637 mmHg 86%
    03:00 +3°C° 0 mm 2 mps 637 mmHg 87%
    04:00 +3°C° 0 mm 2 mps 637 mmHg 86%
    05:00 +3°C° 0 mm 2 mps 637 mmHg 85%
    06:00 +3°C° 0 mm 2 mps 637 mmHg 84%
    07:00 +3°C° 0 mm 2 mps 638 mmHg 83%
    08:00 +4°C° 0 mm 2 mps 639 mmHg 82%
    09:00 +5°C° 0 mm 2 mps 639 mmHg 81%
    10:00 +6°C° 0 mm 2 mps 640 mmHg 76%
    11:00 +7°C° 0 mm 2 mps 640 mmHg 72%
    12:00 +9°C° 0 mm 2 mps 641 mmHg 68%
    13:00 +10°C° 0 mm 1 mps 640 mmHg 69%
    14:00 +10°C° 0 mm 1 mps 640 mmHg 70%
    15:00 +10°C° 0 mm 1 mps 640 mmHg 72%
    16:00 +8°C° 0 mm 1 mps 639 mmHg 78%
    17:00 +6°C° 0 mm 1 mps 639 mmHg 83%
    18:00 +5°C° 0 mm 1 mps 638 mmHg 89%
    19:00 +4°C° 0 mm 1 mps 639 mmHg 88%
    20:00 +4°C° 0 mm 1 mps 639 mmHg 87%
    21:00 +4°C° 0 mm 1 mps 639 mmHg 86%
    22:00 +4°C° 0 mm 1 mps 639 mmHg 85%
    23:00 +4°C° 0 mm 1 mps 638 mmHg 85%

    24 January, Wednesday

    Time Temperature Precipitation Wind Pressure Humidity
    00:00 +4°C° 0 mm 1 mps 638 mmHg 84%
    01:00 +3°C° 0 mm 1 mps 638 mmHg 84%
    02:00 +3°C° 0 mm 1 mps 638 mmHg 83%
    03:00 +3°C° 0 mm 1 mps 638 mmHg 83%
    04:00 +3°C° 0 mm 1 mps 637 mmHg 82%
    05:00 +3°C° 0 mm 1 mps 637 mmHg 82%
    06:00 +3°C° 0 mm 1 mps 637 mmHg 81%
    07:00 +4°C° 0 mm 1 mps 638 mmHg 77%
    08:00 +5°C° 0 mm 1 mps 638 mmHg 74%
    09:00 +6°C° 0 mm 1 mps 639 mmHg 70%
    10:00 +6°C° 0 mm 2 mps 639 mmHg 66%
    11:00 +8°C° 0 mm 2 mps 639 mmHg 62%
    12:00 +9°C° 0 mm 2 mps 640 mmHg 58%
    13:00 +9°C° 0 mm 2 mps 639 mmHg 60%
    14:00 +9°C° 0 mm 2 mps 639 mmHg 61%
    15:00 +8°C° 0 mm 2 mps 638 mmHg 63%
    16:00 +7°C° 0 mm 2 mps 637 mmHg 70%
    17:00 +5°C° 0 mm 2 mps 637 mmHg 77%
    18:00 +4°C° 0 mm 1 mps 636 mmHg 84%
    19:00 +4°C° 0 mm 1 mps 636 mmHg 82%
    20:00 +3°C° 0 mm 1 mps 636 mmHg 80%
    21:00 +3°C° 0 mm 1 mps 636 mmHg 78%
    22:00 +3°C° 0 mm 1 mps 636 mmHg 78%
    23:00 +2°C° 0 mm 2 mps 635 mmHg 78%

    25 January, Thursday

    Time Temperature Precipitation Wind Pressure Humidity
    00:00 +1°C° 0 mm 2 mps 635 mmHg 77%
    01:00 +1°C° 0 mm 2 mps 635 mmHg 78%
    02:00 +1°C° 0 mm 2 mps 634 mmHg 78%
    03:00 +1°C° 0 mm 2 mps 634 mmHg 79%
    04:00 +1°C° 0 mm 2 mps 634 mmHg 77%
    05:00 +1°C° 0 mm 2 mps 633 mmHg 76%
    06:00 +1°C° 0 mm 2 mps 633 mmHg 75%
    07:00 +2°C° 0 mm 2 mps 633 mmHg 72%
    08:00 +3°C° 0 mm 2 mps 634 mmHg 69%
    09:00 +4°C° 0 mm 2 mps 634 mmHg 66%
    10:00 +5°C° 0 mm 2 mps 634 mmHg 62%
    11:00 +6°C° 0 mm 2 mps 634 mmHg 58%
    12:00 +8°C° 0 mm 2 mps 634 mmHg 54%
    13:00 +7°C° 0 mm 3 mps 634 mmHg 55%
    14:00 +7°C° 0 mm 3 mps 633 mmHg 57%
    15:00 +7°C° 0 mm 3 mps 633 mmHg 58%
    16:00 +5°C° 0.1 mm 2 mps 632 mmHg 68%
    17:00 +3°C° 0.1 mm 2 mps 632 mmHg 77%
    18:00 +2°C° 0.1 mm 2 mps 631 mmHg 86%
    19:00 +1°C° 0.8 mm 2 mps 631 mmHg 88%
    20:00 +1°C° 0.8 mm 2 mps 632 mmHg 90%
    21:00 +1°C° 0.8 mm 2 mps 632 mmHg 91%
    22:00 -1°C° 0.5 mm 3 mps 632 mmHg 91%
    23:00 -2°C° 0.5 mm 3 mps 632 mmHg 91%

    26 January, Friday

    Time Temperature Precipitation Wind Pressure Humidity
    00:00 -2°C° 0.5 mm 3 mps 631 mmHg 90%
    01:00 -4°C° 0.2 mm 3 mps 631 mmHg 89%
    02:00 -4°C° 0.2 mm 3 mps 631 mmHg 88%
    03:00 -4°C° 0.2 mm 2 mps 631 mmHg 87%
    04:00 -4°C° 0.1 mm 2 mps 631 mmHg 85%
    05:00 -4°C° 0.1 mm 2 mps 631 mmHg 84%
    06:00 -4°C° 0.1 mm 2 mps 631 mmHg 82%
    07:00 -4°C° 0 mm 2 mps 632 mmHg 79%
    08:00 -4°C° 0 mm 3 mps 632 mmHg 75%
    09:00 -4°C° 0 mm 3 mps 633 mmHg 72%
    10:00 -2°C° 0 mm 3 mps 633 mmHg 66%
    11:00 -1°C° 0 mm 3 mps 633 mmHg 61%
    12:00 0°C° 0 mm 3 mps 634 mmHg 55%
    13:00 0°C° 0 mm 3 mps 634 mmHg 56%
    14:00 0°C° 0 mm 3 mps 633 mmHg 57%
    15:00 0°C° 0 mm 3 mps 633 mmHg 58%
    16:00 -1°C° 0.1 mm 3 mps 633 mmHg 63%
    17:00 -2°C° 0.1 mm 3 mps 633 mmHg 68%
    18:00 -5°C° 0.1 mm 3 mps 633 mmHg 74%
    19:00 -5°C° 0.3 mm 3 mps 634 mmHg 75%
    20:00 -5°C° 0.3 mm 3 mps 634 mmHg 76%
    21:00 -5°C° 0.3 mm 3 mps 634 mmHg 77%
    22:00 -5°C° 0.8 mm 3 mps 634 mmHg 79%
    23:00 -6°C° 0.8 mm 3 mps 635 mmHg 81%
    Show more